DAL1762 KBOS-TNCA

Flight info

Callsign DAL1762
Flight time N/A
Altitude 34000
Route SSOXS7 SSOXS Q167 SPDEY/N0458F330 Y488 OHRYN/N0455F340 Y488 WEBBB/M079F340 Y488 HOBOH/M079F330 Y488 CHUBY/M079F340 Y488 SAUCR/M079F330 L453 ALOBI/M079F350 L453 LAMER/N0464F350 L453 RODRK/N0471F340 DCT POKEG/N0469F350 UT17 KOBET/N0471F340 UT17 CDO UT19 BEROX BEROX2A
Aircraft B738/M-SDE2E3FGHIRWXY/LB1

Departure

Time N/A
Airport Boston Logan International Airport (KBOS)

Arrival

Time 2026-04-28 04:18
Airport Queen Beatrix International Airport (TNCA)
Time Latitude Longitude Altitude Speed Heading
2026-04-28 00:39 39.78014 -72.07088 34319 ft 459 kts 120°
2026-04-28 00:39 39.74545 -72.00066 34319 ft 467 kts 127°
2026-04-28 00:40 39.70139 -71.93801 34319 ft 473 kts 136°
2026-04-28 00:40 39.65228 -71.87991 34319 ft 475 kts 137°
2026-04-28 00:41 39.60401 -71.82251 34319 ft 474 kts 137°
2026-04-28 00:41 39.55551 -71.76467 34319 ft 474 kts 137°
2026-04-28 00:42 39.50319 -71.71268 34319 ft 474 kts 149°
2026-04-28 00:42 39.44314 -71.67756 34320 ft 474 kts 160°
2026-04-28 00:43 39.38043 -71.65029 34319 ft 474 kts 161°
2026-04-28 00:43 39.31857 -71.62289 34319 ft 474 kts 161°
2026-04-28 00:44 39.25611 -71.59503 34319 ft 474 kts 161°
2026-04-28 00:44 39.19250 -71.57273 34319 ft 473 kts 169°
2026-04-28 00:45 39.12710 -71.56445 34319 ft 473 kts 178°
2026-04-28 00:45 39.06115 -71.56106 34319 ft 473 kts 177°
2026-04-28 00:46 38.99572 -71.55712 34318 ft 474 kts 177°
2026-04-28 00:46 38.92958 -71.55302 34319 ft 474 kts 177°
2026-04-28 00:47 38.87490 -71.54961 34319 ft 474 kts 177°
2026-04-28 00:47 38.80900 -71.54551 34319 ft 474 kts 177°
2026-04-28 00:48 38.73223 -71.54114 34319 ft 474 kts 177°
2026-04-28 00:48 38.67702 -71.53800 34319 ft 474 kts 177°
2026-04-28 00:49 38.61107 -71.53424 34319 ft 474 kts 177°
2026-04-28 00:49 38.54566 -71.54037 34319 ft 474 kts 192°
2026-04-28 00:50 38.48297 -71.56608 34319 ft 474 kts 202°
2026-04-28 00:50 38.42207 -71.59854 34319 ft 474 kts 202°
2026-04-28 00:51 38.36103 -71.63053 34319 ft 474 kts 202°
2026-04-28 00:51 38.29981 -71.66218 34321 ft 474 kts 202°
2026-04-28 00:52 38.23907 -71.69332 34324 ft 474 kts 202°
2026-04-28 00:52 38.17771 -71.72470 34334 ft 474 kts 202°
2026-04-28 00:53 38.11628 -71.75606 34344 ft 474 kts 202°
2026-04-28 00:53 38.05545 -71.78712 34348 ft 474 kts 202°
2026-04-28 00:54 37.99415 -71.81835 34348 ft 475 kts 202°
2026-04-28 00:54 37.93277 -71.84982 34348 ft 474 kts 202°
2026-04-28 00:55 37.87188 -71.88084 34348 ft 474 kts 202°
2026-04-28 00:55 37.81053 -71.91194 34348 ft 474 kts 202°
2026-04-28 00:56 37.74931 -71.94291 34348 ft 474 kts 202°
2026-04-28 00:56 37.68817 -71.97381 34348 ft 474 kts 202°
2026-04-28 00:57 37.62770 -72.00642 34348 ft 474 kts 205°
2026-04-28 00:57 37.56811 -72.04216 34348 ft 474 kts 205°
2026-04-28 00:58 37.50849 -72.07736 34348 ft 474 kts 205°
2026-04-28 00:58 37.44855 -72.11242 34348 ft 474 kts 205°
2026-04-28 00:59 37.38855 -72.14723 34348 ft 474 kts 205°
2026-04-28 00:59 37.32896 -72.18171 34348 ft 474 kts 205°
2026-04-28 01:00 37.26889 -72.21642 34348 ft 474 kts 205°
2026-04-28 01:00 37.20901 -72.25100 34348 ft 474 kts 205°
2026-04-28 01:01 37.14929 -72.28542 34348 ft 474 kts 205°
2026-04-28 01:01 37.08930 -72.31994 34348 ft 474 kts 205°
2026-04-28 01:02 37.02938 -72.35437 34348 ft 474 kts 205°
2026-04-28 01:02 36.96955 -72.38896 34348 ft 474 kts 205°
2026-04-28 01:03 36.90992 -72.42333 34348 ft 474 kts 205°
2026-04-28 01:03 36.84964 -72.45781 34348 ft 474 kts 205°
2026-04-28 01:04 36.78985 -72.49192 34348 ft 473 kts 205°
2026-04-28 01:04 36.72912 -72.52360 34342 ft 473 kts 195°
2026-04-28 01:04 36.69678 -72.52994 34347 ft 473 kts 182°
2026-04-28 01:05 36.66420 -72.52785 34351 ft 473 kts 172°
2026-04-28 01:05 36.60016 -72.51004 34348 ft 473 kts 165°
2026-04-28 01:06 36.53666 -72.48844 34348 ft 473 kts 165°
2026-04-28 01:06 36.47295 -72.46743 34348 ft 473 kts 165°
2026-04-28 01:07 36.40924 -72.44666 34349 ft 473 kts 165°
2026-04-28 01:07 36.34559 -72.42587 34348 ft 473 kts 165°
2026-04-28 01:08 36.28175 -72.40501 34348 ft 473 kts 165°
2026-04-28 01:08 36.21804 -72.38439 34348 ft 473 kts 165°
2026-04-28 01:09 36.15467 -72.36394 34348 ft 473 kts 165°
2026-04-28 01:09 36.09090 -72.34339 34348 ft 473 kts 165°
2026-04-28 01:10 36.02618 -72.32895 34348 ft 473 kts 175°
2026-04-28 01:10 35.96054 -72.32726 34348 ft 473 kts 181°
2026-04-28 01:11 35.89457 -72.32875 34348 ft 473 kts 181°
2026-04-28 01:11 35.82872 -72.32988 34348 ft 473 kts 181°
2026-04-28 01:12 35.76297 -72.33087 34349 ft 473 kts 181°
2026-04-28 01:12 35.69705 -72.33182 34348 ft 473 kts 180°
2026-04-28 01:13 35.63125 -72.33276 34344 ft 473 kts 180°
2026-04-28 01:13 35.53282 -72.33414 34327 ft 473 kts 180°
2026-04-28 01:14 35.46687 -72.33507 34304 ft 473 kts 180°
2026-04-28 01:14 35.40112 -72.33599 34293 ft 473 kts 180°
2026-04-28 01:15 35.33549 -72.33690 34289 ft 473 kts 180°
2026-04-28 01:15 35.26976 -72.33782 34289 ft 473 kts 180°
2026-04-28 01:16 35.20365 -72.33874 34289 ft 473 kts 180°
2026-04-28 01:16 35.13776 -72.33965 34289 ft 473 kts 180°
2026-04-28 01:17 35.07227 -72.34056 34289 ft 473 kts 180°
2026-04-28 01:17 35.00638 -72.34147 34289 ft 473 kts 180°
2026-04-28 01:18 34.94059 -72.34569 34289 ft 473 kts 187°
2026-04-28 01:18 34.87534 -72.35705 34289 ft 473 kts 188°
2026-04-28 01:19 34.81011 -72.36790 34289 ft 473 kts 188°
2026-04-28 01:19 34.74489 -72.37800 34289 ft 473 kts 185°
2026-04-28 01:20 34.67935 -72.37786 34289 ft 473 kts 176°
2026-04-28 01:20 34.61385 -72.37047 34289 ft 473 kts 174°
2026-04-28 01:21 34.54821 -72.36307 34289 ft 473 kts 175°
2026-04-28 01:21 34.48243 -72.35588 34289 ft 473 kts 175°
2026-04-28 01:22 34.41719 -72.34882 34289 ft 473 kts 175°
2026-04-28 01:22 34.35166 -72.34172 34289 ft 473 kts 175°
2026-04-28 01:23 34.28602 -72.33460 34289 ft 473 kts 175°
2026-04-28 01:23 34.22013 -72.32750 34289 ft 473 kts 175°
2026-04-28 01:24 34.15452 -72.32046 34289 ft 473 kts 175°
2026-04-28 01:24 34.08934 -72.31348 34289 ft 473 kts 175°
2026-04-28 01:25 34.02372 -72.30646 34289 ft 473 kts 175°
2026-04-28 01:25 33.95858 -72.29651 34289 ft 473 kts 169°
2026-04-28 01:26 33.89451 -72.27906 34289 ft 473 kts 166°
2026-04-28 01:26 33.83023 -72.26069 34289 ft 473 kts 167°
2026-04-28 01:27 33.76604 -72.24287 34289 ft 473 kts 167°
2026-04-28 01:27 33.70171 -72.22520 34289 ft 473 kts 167°
2026-04-28 01:28 33.63789 -72.20771 34289 ft 473 kts 167°
2026-04-28 01:28 33.57397 -72.19015 34289 ft 473 kts 167°
2026-04-28 01:29 33.50974 -72.17260 34289 ft 473 kts 167°
2026-04-28 01:29 33.44555 -72.15511 34289 ft 473 kts 167°
2026-04-28 01:30 33.38112 -72.13759 34289 ft 473 kts 167°
2026-04-28 01:30 33.31705 -72.12013 34289 ft 473 kts 167°
2026-04-28 01:31 33.25291 -72.10271 34289 ft 473 kts 167°
2026-04-28 01:31 33.19943 -72.08825 34289 ft 473 kts 167°
2026-04-28 01:32 33.12467 -72.06807 34289 ft 472 kts 167°
2026-04-28 01:32 33.07100 -72.05360 34289 ft 472 kts 167°
2026-04-28 01:33 33.00729 -72.03643 34289 ft 472 kts 167°
2026-04-28 01:33 32.94279 -72.01910 34289 ft 472 kts 167°
2026-04-28 01:34 32.87892 -72.00197 34289 ft 472 kts 167°
2026-04-28 01:34 32.81525 -71.98492 34289 ft 472 kts 167°
2026-04-28 01:35 32.75104 -71.96774 34289 ft 472 kts 167°
2026-04-28 01:35 32.68703 -71.95062 34289 ft 472 kts 167°
2026-04-28 01:36 32.62277 -71.93336 34289 ft 472 kts 167°
2026-04-28 01:36 32.55872 -71.91624 34289 ft 472 kts 167°
2026-04-28 01:37 32.49476 -71.89918 34289 ft 472 kts 167°
2026-04-28 01:37 32.43075 -71.88215 34289 ft 472 kts 167°
2026-04-28 01:38 32.36656 -71.86509 34289 ft 472 kts 167°
2026-04-28 01:38 32.30259 -71.84804 34289 ft 472 kts 167°
2026-04-28 01:39 32.23850 -71.83106 34289 ft 472 kts 167°
2026-04-28 01:39 32.17431 -71.81411 34289 ft 472 kts 167°
2026-04-28 01:40 32.11025 -71.79721 34289 ft 472 kts 167°
2026-04-28 01:40 32.04605 -71.78028 34289 ft 472 kts 167°
2026-04-28 01:41 31.98238 -71.76355 34289 ft 472 kts 167°
2026-04-28 01:41 31.91813 -71.74671 34289 ft 472 kts 167°
2026-04-28 01:42 31.85388 -71.72990 34289 ft 472 kts 167°
2026-04-28 01:42 31.78972 -71.71313 34289 ft 472 kts 167°
2026-04-28 01:43 31.72564 -71.69640 34289 ft 472 kts 167°
2026-04-28 01:43 31.66174 -71.67963 34289 ft 472 kts 167°
2026-04-28 01:44 31.59775 -71.66287 34289 ft 472 kts 167°
2026-04-28 01:44 31.53353 -71.64612 34289 ft 472 kts 167°
2026-04-28 01:45 31.46934 -71.62941 34289 ft 472 kts 167°
2026-04-28 01:45 31.40544 -71.61280 34289 ft 472 kts 167°
2026-04-28 01:46 31.34148 -71.59620 34289 ft 472 kts 167°
2026-04-28 01:46 31.27721 -71.57954 34289 ft 472 kts 167°
2026-04-28 01:47 31.21297 -71.56292 34289 ft 472 kts 167°
2026-04-28 01:47 31.14882 -71.54634 34289 ft 472 kts 167°
2026-04-28 01:48 31.08475 -71.52981 34289 ft 472 kts 167°
2026-04-28 01:48 31.02043 -71.51323 34289 ft 472 kts 167°
2026-04-28 01:49 30.95638 -71.49675 34290 ft 472 kts 167°
2026-04-28 01:49 30.89222 -71.48026 34289 ft 472 kts 167°
2026-04-28 01:50 30.82807 -71.46380 34289 ft 472 kts 167°
2026-04-28 01:50 30.76395 -71.44737 34289 ft 472 kts 167°
2026-04-28 01:51 30.70006 -71.43101 34289 ft 472 kts 167°
2026-04-28 01:51 30.63606 -71.41466 34289 ft 472 kts 167°
2026-04-28 01:52 30.57177 -71.39825 34289 ft 472 kts 167°
2026-04-28 01:52 30.50775 -71.38193 34289 ft 472 kts 167°
2026-04-28 01:53 30.44368 -71.36562 34289 ft 472 kts 167°
2026-04-28 01:53 30.37931 -71.34926 34289 ft 472 kts 167°
2026-04-28 01:54 30.31528 -71.33300 34289 ft 472 kts 167°
2026-04-28 01:54 30.25087 -71.31667 34289 ft 472 kts 167°
2026-04-28 01:55 30.18675 -71.30044 34289 ft 472 kts 167°
2026-04-28 01:55 30.12303 -71.28432 34289 ft 472 kts 167°
2026-04-28 01:56 30.05868 -71.26807 34289 ft 472 kts 167°
2026-04-28 01:56 29.99441 -71.25187 34289 ft 472 kts 167°
2026-04-28 01:57 29.93060 -71.23580 34289 ft 472 kts 167°
2026-04-28 01:57 29.86645 -71.21966 34289 ft 472 kts 167°
2026-04-28 01:58 29.80225 -71.20353 34289 ft 472 kts 167°
2026-04-28 01:58 29.73808 -71.18744 34289 ft 474 kts 168°
2026-04-28 01:59 29.67338 -71.17123 34284 ft 476 kts 168°
2026-04-28 01:59 29.60881 -71.15507 34283 ft 475 kts 168°
2026-04-28 02:00 29.54401 -71.13888 34280 ft 475 kts 168°
2026-04-28 02:00 29.47938 -71.12275 34270 ft 475 kts 168°
2026-04-28 02:01 29.41502 -71.10671 34264 ft 475 kts 168°
2026-04-28 02:01 29.35021 -71.09058 34264 ft 475 kts 168°
2026-04-28 02:02 29.28540 -71.07447 34246 ft 475 kts 168°
2026-04-28 02:02 29.22089 -71.05845 34237 ft 475 kts 168°
2026-04-28 02:03 29.15641 -71.04244 34229 ft 475 kts 167°
2026-04-28 02:03 29.09169 -71.02637 34213 ft 475 kts 168°
2026-04-28 02:04 29.02701 -71.01039 34203 ft 475 kts 168°
2026-04-28 02:04 28.96228 -70.99442 34183 ft 475 kts 168°
2026-04-28 02:05 28.89750 -70.97846 34170 ft 475 kts 168°
2026-04-28 02:05 28.83298 -70.96257 34162 ft 475 kts 168°
2026-04-28 02:06 28.76817 -70.94666 34146 ft 476 kts 168°
2026-04-28 02:06 28.70347 -70.93081 34137 ft 476 kts 168°
2026-04-28 02:07 28.63914 -70.91506 34127 ft 476 kts 168°
2026-04-28 02:07 28.57426 -70.89920 34113 ft 476 kts 168°
2026-04-28 02:08 28.50948 -70.88336 34116 ft 476 kts 168°
2026-04-28 02:08 28.44473 -70.86746 34107 ft 476 kts 168°
2026-04-28 02:09 28.38019 -70.85167 34093 ft 476 kts 168°
2026-04-28 02:09 28.31540 -70.83585 34081 ft 476 kts 168°
2026-04-28 02:10 28.25026 -70.81999 34049 ft 481 kts 168°
2026-04-28 02:10 28.18484 -70.80407 34033 ft 480 kts 168°
2026-04-28 02:11 28.11984 -70.78828 34025 ft 480 kts 168°
2026-04-28 02:11 28.05447 -70.77242 34046 ft 480 kts 168°
2026-04-28 02:12 27.98932 -70.75663 34057 ft 480 kts 168°
2026-04-28 02:12 27.92390 -70.74080 34069 ft 480 kts 168°
2026-04-28 02:13 27.85864 -70.72503 34083 ft 480 kts 168°
2026-04-28 02:13 27.79301 -70.70918 34090 ft 480 kts 168°
2026-04-28 02:14 27.72798 -70.69350 34103 ft 480 kts 168°
2026-04-28 02:14 27.66266 -70.67777 34112 ft 480 kts 168°
2026-04-28 02:15 27.56450 -70.65416 34112 ft 480 kts 168°
2026-04-28 02:16 27.49957 -70.63858 34112 ft 480 kts 168°
2026-04-28 02:16 27.43418 -70.62289 34112 ft 480 kts 168°
2026-04-28 02:17 27.36898 -70.60728 34112 ft 480 kts 168°
2026-04-28 02:17 27.31445 -70.59423 34112 ft 480 kts 168°
2026-04-28 02:18 27.24953 -70.57871 34112 ft 480 kts 168°
2026-04-28 02:18 27.18416 -70.56311 34112 ft 480 kts 168°
2026-04-28 02:19 27.11843 -70.54744 34112 ft 484 kts 168°
2026-04-28 02:19 27.05262 -70.53177 34112 ft 484 kts 168°
2026-04-28 02:20 26.98682 -70.51612 34112 ft 484 kts 168°
2026-04-28 02:20 26.92061 -70.50039 34112 ft 484 kts 168°
2026-04-28 02:21 26.85463 -70.48473 34112 ft 484 kts 168°
2026-04-28 02:21 26.78927 -70.46924 34112 ft 484 kts 168°
2026-04-28 02:22 26.72309 -70.45358 34112 ft 484 kts 168°
2026-04-28 02:22 26.65712 -70.43798 34112 ft 484 kts 168°
2026-04-28 02:23 26.59129 -70.42243 34111 ft 484 kts 168°
2026-04-28 02:23 26.52514 -70.40683 34112 ft 484 kts 168°
2026-04-28 02:24 26.45971 -70.39142 34112 ft 484 kts 168°
2026-04-28 02:24 26.39385 -70.37592 34112 ft 484 kts 168°
2026-04-28 02:25 26.32781 -70.36039 34112 ft 484 kts 168°
2026-04-28 02:25 26.26199 -70.34494 34112 ft 484 kts 168°
2026-04-28 02:26 26.19584 -70.32943 34112 ft 484 kts 168°
2026-04-28 02:26 26.13023 -70.31406 34112 ft 484 kts 168°
2026-04-28 02:27 26.06421 -70.29861 34112 ft 484 kts 168°
2026-04-28 02:27 25.99805 -70.28315 34112 ft 485 kts 168°
2026-04-28 02:28 25.93196 -70.26772 34112 ft 485 kts 168°
2026-04-28 02:28 25.86574 -70.25228 34112 ft 485 kts 168°
2026-04-28 02:29 25.80007 -70.23699 34107 ft 485 kts 168°
2026-04-28 02:29 25.73418 -70.22166 34106 ft 485 kts 168°
2026-04-28 02:30 25.66812 -70.20631 34102 ft 485 kts 168°
2026-04-28 02:30 25.60194 -70.19095 34090 ft 485 kts 168°
2026-04-28 02:31 25.53551 -70.17555 34090 ft 485 kts 168°
2026-04-28 02:31 25.46953 -70.16027 34088 ft 485 kts 168°
2026-04-28 02:32 25.40380 -70.14506 34079 ft 485 kts 168°
2026-04-28 02:32 25.33769 -70.12978 34082 ft 485 kts 168°
2026-04-28 02:33 25.27163 -70.11449 34073 ft 485 kts 168°
2026-04-28 02:33 25.20516 -70.09916 34063 ft 485 kts 168°
2026-04-28 02:34 25.13909 -70.08396 34063 ft 485 kts 168°
2026-04-28 02:34 25.07324 -70.06883 34054 ft 485 kts 168°
2026-04-28 02:35 25.00682 -70.05433 34052 ft 485 kts 172°
2026-04-28 02:35 24.93937 -70.04853 34053 ft 485 kts 178°
2026-04-28 02:36 24.87175 -70.04585 34053 ft 485 kts 178°
2026-04-28 02:36 24.80478 -70.04290 34053 ft 485 kts 178°
2026-04-28 02:37 24.73720 -70.03982 34053 ft 485 kts 178°
2026-04-28 02:37 24.66959 -70.03670 34053 ft 485 kts 178°
2026-04-28 02:38 24.60248 -70.03360 34053 ft 485 kts 178°
2026-04-28 02:38 24.53487 -70.03047 34053 ft 485 kts 178°
2026-04-28 02:39 24.46736 -70.02735 34053 ft 485 kts 178°
2026-04-28 02:39 24.40009 -70.02425 34053 ft 485 kts 178°
2026-04-28 02:40 24.33240 -70.02114 34053 ft 485 kts 178°
2026-04-28 02:40 24.26504 -70.01804 34053 ft 485 kts 178°
2026-04-28 02:41 24.19750 -70.01494 34053 ft 485 kts 178°
2026-04-28 02:41 24.12999 -70.01317 34053 ft 485 kts 180°
2026-04-28 02:42 24.06240 -70.01456 34053 ft 485 kts 181°
2026-04-28 02:42 23.99514 -70.01565 34053 ft 485 kts 181°
2026-04-28 02:43 23.92757 -70.01652 34053 ft 485 kts 180°
2026-04-28 02:43 23.85991 -70.01729 34053 ft 485 kts 180°
2026-04-28 02:44 23.79229 -70.01803 34053 ft 485 kts 180°
2026-04-28 02:44 23.72516 -70.01875 34053 ft 486 kts 180°
2026-04-28 02:45 23.65726 -70.01946 34045 ft 488 kts 180°
2026-04-28 02:45 23.58949 -70.02017 34046 ft 487 kts 180°
2026-04-28 02:46 23.52151 -70.02088 34033 ft 487 kts 180°
2026-04-28 02:46 23.45382 -70.02159 34022 ft 487 kts 180°
2026-04-28 02:47 23.38599 -70.02230 34015 ft 487 kts 180°
2026-04-28 02:47 23.31801 -70.02301 34000 ft 487 kts 180°
2026-04-28 02:48 23.25053 -70.02371 33999 ft 487 kts 180°
2026-04-28 02:48 23.18280 -70.02441 33998 ft 488 kts 180°
2026-04-28 02:49 23.11473 -70.02512 33994 ft 487 kts 180°
2026-04-28 02:49 23.04693 -70.02582 33994 ft 488 kts 180°
2026-04-28 02:50 22.97927 -70.02652 33994 ft 488 kts 180°
2026-04-28 02:50 22.91156 -70.02723 33994 ft 488 kts 180°
2026-04-28 02:51 22.84361 -70.02793 33994 ft 488 kts 180°
2026-04-28 02:51 22.77554 -70.02863 33994 ft 488 kts 180°
2026-04-28 02:52 22.70810 -70.02933 33994 ft 488 kts 180°
2026-04-28 02:52 22.63961 -70.03003 33994 ft 489 kts 180°
2026-04-28 02:53 22.57208 -70.03073 33994 ft 489 kts 180°
2026-04-28 02:53 22.50405 -70.03143 33994 ft 489 kts 180°
2026-04-28 02:54 22.43605 -70.03213 33994 ft 489 kts 180°
2026-04-28 02:54 22.36793 -70.03283 33994 ft 489 kts 180°
2026-04-28 02:55 22.30033 -70.03352 33994 ft 489 kts 180°
2026-04-28 02:55 22.23203 -70.03422 33994 ft 489 kts 180°
2026-04-28 02:56 22.16408 -70.03492 33994 ft 489 kts 180°
2026-04-28 02:56 22.09626 -70.03561 33994 ft 489 kts 180°
2026-04-28 02:57 22.02813 -70.03631 33994 ft 489 kts 180°
2026-04-28 02:57 21.96033 -70.03700 33994 ft 489 kts 180°
2026-04-28 02:58 21.89254 -70.03769 33994 ft 489 kts 180°
2026-04-28 02:58 21.82452 -70.03839 33994 ft 489 kts 180°
2026-04-28 02:59 21.75649 -70.03908 33994 ft 489 kts 180°
2026-04-28 02:59 21.68858 -70.03977 33994 ft 489 kts 180°
2026-04-28 03:00 21.62036 -70.04046 33994 ft 489 kts 180°
2026-04-28 03:00 21.55278 -70.04115 33994 ft 489 kts 180°
2026-04-28 03:01 21.48472 -70.04184 33994 ft 489 kts 180°
2026-04-28 03:01 21.41663 -70.04253 33994 ft 489 kts 180°
2026-04-28 03:02 21.34889 -70.04322 33994 ft 489 kts 180°
2026-04-28 03:02 21.28094 -70.04390 33994 ft 489 kts 180°
2026-04-28 03:03 21.21274 -70.04459 34001 ft 489 kts 180°
2026-04-28 03:03 21.14466 -70.04528 34001 ft 489 kts 180°
2026-04-28 03:04 21.07662 -70.04597 34008 ft 488 kts 180°
2026-04-28 03:04 21.00889 -70.04665 34020 ft 488 kts 180°
2026-04-28 03:05 20.94098 -70.04733 34015 ft 488 kts 180°
2026-04-28 03:05 20.88448 -70.04795 34024 ft 488 kts 180°
2026-04-28 03:06 20.81652 -70.04858 34029 ft 488 kts 180°
2026-04-28 03:06 20.74862 -70.04930 34030 ft 488 kts 180°
2026-04-28 03:07 20.68072 -70.04994 34046 ft 488 kts 180°
2026-04-28 03:07 20.61266 -70.05063 34044 ft 488 kts 180°
2026-04-28 03:08 20.54513 -70.05133 34049 ft 487 kts 180°
2026-04-28 03:08 20.47750 -70.05199 34059 ft 486 kts 180°
2026-04-28 03:09 20.40956 -70.05266 34061 ft 487 kts 180°
2026-04-28 03:09 20.34193 -70.05334 34074 ft 486 kts 180°
2026-04-28 03:10 20.27413 -70.05401 34082 ft 485 kts 180°
2026-04-28 03:10 20.20703 -70.05359 34081 ft 485 kts 175°
2026-04-28 03:11 20.14116 -70.03856 34084 ft 485 kts 160°
2026-04-28 03:11 20.07891 -70.01061 34083 ft 485 kts 155°
2026-04-28 03:12 20.01723 -69.98093 34083 ft 485 kts 156°
2026-04-28 03:12 19.95571 -69.95179 34083 ft 485 kts 156°
2026-04-28 03:13 19.89373 -69.92259 34083 ft 485 kts 156°
2026-04-28 03:13 19.83203 -69.89350 34079 ft 485 kts 156°
2026-04-28 03:14 19.77060 -69.86458 34074 ft 485 kts 156°
2026-04-28 03:14 19.70878 -69.83546 34077 ft 485 kts 156°
2026-04-28 03:15 19.64701 -69.80648 34061 ft 485 kts 156°
2026-04-28 03:15 19.58504 -69.77745 34054 ft 485 kts 156°
2026-04-28 03:16 19.52369 -69.74874 34053 ft 485 kts 156°
2026-04-28 03:16 19.46020 -69.72420 34053 ft 485 kts 166°
2026-04-28 03:17 19.39341 -69.71390 34053 ft 485 kts 176°
2026-04-28 03:17 19.29226 -69.70942 34053 ft 485 kts 178°
2026-04-28 03:18 19.22455 -69.70624 34053 ft 485 kts 177°
2026-04-28 03:18 19.15694 -69.70294 34053 ft 485 kts 177°
2026-04-28 03:19 19.08982 -69.69960 34053 ft 485 kts 177°
2026-04-28 03:19 19.02219 -69.69623 34053 ft 485 kts 177°
2026-04-28 03:20 18.95477 -69.69286 34056 ft 486 kts 177°
2026-04-28 03:20 18.88757 -69.68952 34053 ft 486 kts 177°
2026-04-28 03:21 18.81975 -69.68611 34055 ft 486 kts 177°
2026-04-28 03:21 18.75200 -69.68277 34053 ft 486 kts 177°
2026-04-28 03:22 18.68476 -69.67943 34055 ft 486 kts 177°
2026-04-28 03:22 18.61722 -69.67608 34059 ft 486 kts 177°
2026-04-28 03:23 18.54940 -69.67273 34073 ft 487 kts 177°
2026-04-28 03:23 18.48168 -69.66936 34079 ft 487 kts 177°
2026-04-28 03:24 18.41425 -69.67054 34081 ft 486 kts 186°
2026-04-28 03:24 18.34716 -69.68102 34083 ft 486 kts 189°
2026-04-28 03:25 18.28013 -69.69244 34083 ft 486 kts 189°
2026-04-28 03:25 18.21361 -69.70354 34082 ft 486 kts 189°
2026-04-28 03:26 18.14672 -69.71461 34083 ft 486 kts 189°
2026-04-28 03:26 18.07981 -69.72567 34082 ft 486 kts 189°
2026-04-28 03:27 18.01315 -69.73668 34085 ft 487 kts 189°
2026-04-28 03:27 17.94605 -69.74779 34084 ft 487 kts 189°
2026-04-28 03:28 17.87890 -69.75883 34084 ft 487 kts 189°
2026-04-28 03:28 17.81180 -69.76999 34082 ft 487 kts 189°
2026-04-28 03:29 17.74563 -69.78089 34084 ft 488 kts 189°
2026-04-28 03:29 17.67814 -69.79209 34082 ft 487 kts 189°
2026-04-28 03:30 17.61149 -69.80309 34085 ft 486 kts 189°
2026-04-28 03:30 17.54464 -69.81414 34081 ft 487 kts 189°
2026-04-28 03:31 17.47793 -69.82513 34082 ft 487 kts 189°
2026-04-28 03:31 17.41078 -69.83618 34082 ft 487 kts 189°
2026-04-28 03:32 17.34377 -69.84725 34075 ft 487 kts 189°
2026-04-28 03:32 17.27708 -69.85823 34066 ft 488 kts 189°
2026-04-28 03:33 17.20990 -69.86924 34058 ft 487 kts 189°
2026-04-28 03:33 17.14292 -69.88026 34053 ft 487 kts 189°
2026-04-28 03:34 17.07573 -69.89130 34050 ft 487 kts 189°
2026-04-28 03:34 17.00916 -69.90222 34043 ft 488 kts 189°
2026-04-28 03:35 16.94202 -69.91324 34034 ft 488 kts 189°
2026-04-28 03:35 16.87489 -69.92425 34028 ft 488 kts 189°
2026-04-28 03:36 16.80777 -69.93523 33989 ft 488 kts 189°
2026-04-28 03:36 16.74067 -69.94620 33972 ft 488 kts 189°
2026-04-28 03:37 16.67378 -69.95713 33965 ft 488 kts 189°
2026-04-28 03:37 16.60663 -69.96811 33964 ft 488 kts 189°
2026-04-28 03:38 16.53943 -69.97908 33825 ft 490 kts 189°
2026-04-28 03:38 16.50612 -69.98452 33531 ft 489 kts 189°
2026-04-28 03:38 16.47251 -69.98999 33285 ft 485 kts 189°
2026-04-28 03:39 16.43866 -69.99552 33029 ft 485 kts 189°
2026-04-28 03:39 16.40577 -70.00087 32782 ft 486 kts 189°
2026-04-28 03:39 16.37244 -70.00633 32530 ft 485 kts 189°
2026-04-28 03:39 16.33877 -70.01181 32279 ft 484 kts 189°
2026-04-28 03:40 16.30552 -70.01724 32031 ft 486 kts 189°
2026-04-28 03:40 16.27181 -70.02273 31779 ft 490 kts 189°
2026-04-28 03:40 16.23815 -70.02825 31531 ft 489 kts 189°
2026-04-28 03:40 16.20464 -70.03373 31279 ft 489 kts 189°
2026-04-28 03:41 16.18227 -70.03735 31113 ft 490 kts 189°
2026-04-28 03:41 16.14872 -70.04284 30863 ft 488 kts 189°
2026-04-28 03:41 16.11499 -70.04833 30613 ft 492 kts 189°
2026-04-28 03:41 16.07014 -70.05563 30282 ft 490 kts 189°
2026-04-28 03:42 16.04744 -70.05929 30113 ft 490 kts 189°
2026-04-28 03:42 16.01379 -70.06473 29866 ft 492 kts 188°
2026-04-28 03:42 15.97973 -70.06864 29613 ft 491 kts 184°
2026-04-28 03:42 15.94578 -70.07068 29364 ft 490 kts 182°
2026-04-28 03:43 15.91154 -70.07174 29113 ft 491 kts 181°
2026-04-28 03:43 15.87742 -70.07257 28863 ft 491 kts 181°
2026-04-28 03:43 15.84315 -70.07358 28612 ft 492 kts 182°
2026-04-28 03:43 15.80897 -70.07471 28363 ft 492 kts 182°
2026-04-28 03:44 15.77466 -70.07591 28112 ft 493 kts 182°
2026-04-28 03:44 15.74017 -70.07716 27861 ft 494 kts 182°
2026-04-28 03:44 15.70576 -70.07849 27613 ft 497 kts 182°
2026-04-28 03:44 15.67132 -70.07978 27361 ft 496 kts 182°
2026-04-28 03:45 15.63678 -70.08108 27113 ft 498 kts 182°
2026-04-28 03:45 15.60211 -70.08240 26861 ft 496 kts 182°
2026-04-28 03:45 15.56801 -70.08371 26613 ft 496 kts 182°
2026-04-28 03:45 15.53344 -70.08503 26363 ft 497 kts 182°
2026-04-28 03:46 15.49842 -70.08638 26110 ft 498 kts 182°
2026-04-28 03:46 15.46419 -70.08770 25862 ft 498 kts 182°
2026-04-28 03:46 15.42957 -70.08903 25611 ft 496 kts 182°
2026-04-28 03:46 15.39513 -70.09036 25361 ft 494 kts 182°
2026-04-28 03:47 15.36069 -70.09168 25110 ft 492 kts 182°
2026-04-28 03:47 15.32661 -70.09299 24859 ft 490 kts 182°
2026-04-28 03:47 15.29235 -70.09431 24607 ft 489 kts 182°
2026-04-28 03:47 15.25853 -70.09561 24357 ft 487 kts 182°
2026-04-28 03:48 15.22508 -70.09690 24110 ft 485 kts 182°
2026-04-28 03:48 15.19138 -70.09819 23859 ft 483 kts 182°
2026-04-28 03:48 15.15774 -70.09949 23607 ft 481 kts 182°
2026-04-28 03:48 15.12431 -70.10077 23357 ft 480 kts 182°
2026-04-28 03:49 15.09098 -70.10205 23106 ft 478 kts 182°
2026-04-28 03:49 15.05773 -70.10333 22855 ft 476 kts 182°
2026-04-28 03:49 15.02468 -70.10459 22604 ft 474 kts 182°
2026-04-28 03:49 14.99210 -70.10584 22356 ft 472 kts 182°
2026-04-28 03:50 14.95937 -70.10710 22107 ft 471 kts 182°
2026-04-28 03:50 14.92625 -70.10837 21853 ft 469 kts 182°
2026-04-28 03:50 14.89413 -70.10960 21605 ft 467 kts 182°
2026-04-28 03:50 14.86170 -70.11084 21354 ft 465 kts 182°
2026-04-28 03:51 14.82928 -70.11208 21103 ft 464 kts 182°
2026-04-28 03:51 14.79715 -70.11331 20853 ft 462 kts 182°
2026-04-28 03:51 14.76491 -70.11455 20601 ft 460 kts 182°
2026-04-28 03:51 14.73306 -70.11577 20351 ft 458 kts 182°
2026-04-28 03:52 14.70112 -70.11699 20099 ft 457 kts 182°
2026-04-28 03:52 14.66950 -70.11820 19850 ft 455 kts 182°
2026-04-28 03:52 14.63786 -70.11941 19599 ft 453 kts 182°
2026-04-28 03:52 14.60791 -70.12055 19359 ft 452 kts 182°
2026-04-28 03:53 14.57597 -70.12177 19105 ft 452 kts 182°
2026-04-28 03:53 14.54429 -70.12298 18853 ft 450 kts 182°
2026-04-28 03:53 14.51367 -70.12415 18607 ft 448 kts 182°
2026-04-28 03:53 14.48215 -70.12536 18353 ft 447 kts 182°
2026-04-28 03:54 14.45128 -70.12654 18104 ft 445 kts 182°
2026-04-28 03:54 14.42034 -70.12772 17853 ft 443 kts 182°
2026-04-28 03:54 14.38947 -70.12889 17602 ft 442 kts 182°
2026-04-28 03:54 14.35889 -70.13006 17352 ft 440 kts 182°
2026-04-28 03:55 14.32814 -70.13123 17100 ft 439 kts 182°
2026-04-28 03:55 14.29780 -70.13239 16851 ft 437 kts 182°
2026-04-28 03:55 14.26731 -70.13355 16599 ft 435 kts 182°
2026-04-28 03:55 14.23712 -70.13470 16348 ft 434 kts 182°
2026-04-28 03:56 14.20698 -70.13585 16097 ft 432 kts 182°
2026-04-28 03:56 14.17718 -70.13698 15849 ft 431 kts 182°
2026-04-28 03:56 14.14742 -70.13812 15600 ft 429 kts 182°
2026-04-28 03:56 14.11739 -70.13926 15347 ft 428 kts 182°
2026-04-28 03:57 14.08775 -70.14039 15096 ft 426 kts 182°
2026-04-28 03:57 14.05810 -70.14151 14845 ft 425 kts 182°
2026-04-28 03:57 14.02860 -70.14264 14595 ft 423 kts 182°
2026-04-28 03:57 13.99962 -70.14374 14348 ft 421 kts 182°
2026-04-28 03:58 13.97040 -70.14485 14097 ft 420 kts 182°
2026-04-28 03:58 13.94125 -70.14596 13847 ft 418 kts 182°
2026-04-28 03:58 13.91207 -70.14707 13596 ft 417 kts 182°
2026-04-28 03:58 13.88321 -70.14816 13345 ft 415 kts 182°
2026-04-28 03:59 13.85434 -70.14926 13094 ft 414 kts 182°
2026-04-28 03:59 13.82555 -70.15035 12843 ft 412 kts 182°
2026-04-28 03:59 13.79689 -70.15144 12593 ft 411 kts 182°
2026-04-28 03:59 13.76827 -70.15252 12342 ft 409 kts 182°
2026-04-28 04:00 13.73989 -70.15360 12091 ft 408 kts 182°
2026-04-28 04:00 13.71143 -70.15468 11839 ft 406 kts 182°
2026-04-28 04:00 13.68361 -70.15574 11592 ft 404 kts 182°
2026-04-28 04:00 13.65552 -70.15680 11342 ft 403 kts 182°
2026-04-28 04:01 13.62743 -70.15786 11090 ft 401 kts 182°
2026-04-28 04:01 13.59967 -70.15892 10840 ft 400 kts 182°
2026-04-28 04:01 13.57176 -70.15997 10589 ft 399 kts 182°
2026-04-28 04:01 13.54417 -70.16102 10339 ft 397 kts 182°
2026-04-28 04:02 13.51653 -70.16206 10088 ft 396 kts 182°
2026-04-28 04:02 13.48902 -70.16311 9837 ft 394 kts 182°
2026-04-28 04:02 13.46183 -70.16414 9588 ft 393 kts 182°
2026-04-28 04:02 13.43420 -70.16518 9335 ft 393 kts 182°
2026-04-28 04:03 13.40729 -70.16620 9088 ft 391 kts 182°
2026-04-28 04:03 13.37997 -70.16724 8856 ft 390 kts 182°
2026-04-28 04:03 13.35295 -70.16826 8631 ft 389 kts 182°
2026-04-28 04:03 13.32590 -70.16928 8406 ft 388 kts 182°
2026-04-28 04:04 13.29888 -70.17030 8179 ft 386 kts 182°
2026-04-28 04:04 13.27230 -70.17130 7955 ft 385 kts 182°
2026-04-28 04:04 13.24555 -70.17231 7730 ft 384 kts 182°
2026-04-28 04:04 13.21893 -70.17332 7505 ft 383 kts 182°
2026-04-28 04:05 13.19231 -70.17432 7279 ft 381 kts 182°
2026-04-28 04:05 13.16581 -70.17532 7053 ft 380 kts 182°
2026-04-28 04:05 13.13941 -70.17619 6828 ft 379 kts 182°
2026-04-28 04:05 13.11310 -70.17725 6602 ft 377 kts 182°
2026-04-28 04:06 13.08759 -70.17827 6375 ft 353 kts 182°
2026-04-28 04:06 13.06413 -70.17919 6192 ft 320 kts 182°
2026-04-28 04:06 13.04275 -70.18003 6007 ft 293 kts 182°
2026-04-28 04:06 13.02303 -70.18079 5827 ft 277 kts 182°
2026-04-28 04:07 13.00408 -70.18152 5647 ft 266 kts 182°
2026-04-28 04:07 12.98595 -70.18222 5474 ft 264 kts 182°
2026-04-28 04:07 12.97067 -70.18281 5333 ft 267 kts 182°
2026-04-28 04:07 12.95198 -70.18353 5199 ft 269 kts 182°
2026-04-28 04:08 12.93316 -70.18426 5074 ft 270 kts 182°
2026-04-28 04:08 12.91435 -70.18498 4947 ft 268 kts 182°
2026-04-28 04:08 12.89605 -70.18568 4823 ft 265 kts 182°
2026-04-28 04:08 12.87773 -70.18639 4698 ft 263 kts 182°
2026-04-28 04:09 12.85944 -70.18709 4573 ft 263 kts 182°
2026-04-28 04:09 12.84113 -70.18779 4447 ft 263 kts 182°
2026-04-28 04:09 12.82278 -70.18849 4321 ft 262 kts 182°
2026-04-28 04:09 12.80457 -70.18919 4196 ft 262 kts 182°
2026-04-28 04:10 12.78634 -70.18989 4071 ft 261 kts 182°
2026-04-28 04:10 12.76831 -70.19058 3946 ft 261 kts 182°
2026-04-28 04:10 12.74995 -70.19128 3820 ft 261 kts 182°
2026-04-28 04:10 12.73202 -70.19197 3696 ft 260 kts 182°
2026-04-28 04:11 12.71394 -70.19266 3570 ft 260 kts 182°
2026-04-28 04:11 12.69588 -70.19335 3445 ft 260 kts 182°
2026-04-28 04:11 12.67776 -70.19405 3319 ft 259 kts 182°
2026-04-28 04:11 12.65979 -70.19474 3195 ft 260 kts 182°
2026-04-28 04:12 12.64156 -70.19637 3070 ft 263 kts 188°
2026-04-28 04:12 12.62374 -70.20023 2943 ft 259 kts 195°
2026-04-28 04:12 12.60727 -70.20475 2809 ft 244 kts 194°
2026-04-28 04:12 12.59081 -70.20905 2678 ft 232 kts 194°
2026-04-28 04:13 12.57564 -70.21284 2552 ft 216 kts 193°
2026-04-28 04:13 12.56112 -70.21384 2422 ft 210 kts 168°
2026-04-28 04:13 12.54952 -70.20565 2454 ft 202 kts 125°
2026-04-28 04:13 12.54391 -70.19269 2543 ft 196 kts 108°
2026-04-28 04:14 12.54033 -70.17945 2544 ft 190 kts 103°
2026-04-28 04:14 12.53735 -70.16653 2516 ft 183 kts 102°
2026-04-28 04:14 12.53448 -70.15428 2438 ft 173 kts 103°
2026-04-28 04:14 12.53163 -70.14221 2240 ft 173 kts 103°
2026-04-28 04:15 12.52879 -70.13028 2025 ft 171 kts 103°
2026-04-28 04:15 12.52603 -70.11866 1792 ft 166 kts 103°
2026-04-28 04:15 12.52076 -70.09654 1362 ft 153 kts 103°
2026-04-28 04:16 12.51832 -70.08628 1159 ft 147 kts 102°
2026-04-28 04:16 12.51594 -70.07628 974 ft 144 kts 102°
2026-04-28 04:16 12.51360 -70.06646 820 ft 138 kts 102°
2026-04-28 04:16 12.51134 -70.05698 609 ft 136 kts 102°
2026-04-28 04:17 12.50911 -70.04760 427 ft 136 kts 103°
2026-04-28 04:17 12.50687 -70.03820 246 ft 136 kts 103°
2026-04-28 04:17 12.50461 -70.02889 86 ft 132 kts 103°
2026-04-28 04:17 12.50250 -70.02004 20 ft 116 kts 103°
2026-04-28 04:18 12.50102 -70.01364 19 ft 73 kts 105°
2026-04-28 04:18 12.50028 -70.01053 19 ft 27 kts 96°
2026-04-28 04:18 12.50079 -70.01004 19 ft 10 kts
2026-04-28 04:18 12.50141 -70.00995 19 ft 9 kts 15°
2026-04-28 04:19 12.50198 -70.00979 19 ft 8 kts
2026-04-28 04:19 12.50244 -70.01003 19 ft 8 kts 293°
2026-04-28 04:19 12.50252 -70.01028 19 ft 1 kts 288°
2026-04-28 04:19 12.50258 -70.01036 19 ft 2 kts 324°
2026-04-28 04:20 12.50277 -70.01037 19 ft 4 kts 21°
2026-04-28 04:20 12.50313 -70.01021 19 ft 0 kts 23°
2026-04-28 04:20 12.50331 -70.01013 19 ft 0 kts 23°
2026-04-28 04:20 12.50334 -70.01012 19 ft 0 kts 23°